Regional Weather Roundup
Issued by NWS State College, PA

Home | Current Version | Previous Version | Text Only | Print | Product List | Glossary On
Versions: 1 2 3 4 5 6 7 8 9 10 11 12 13 14 15 16 17 18 19 20 21 22 23 24 25 26 27 28 29 30 31 32 33 34 35 36 37 38 39 40 41 42 43 44 45 46 47 48 49 50
000
ASUS41 KCTP 150003
RWRCTP

REGIONAL WEATHER ROUNDUP
NATIONAL WEATHER SERVICE STATE COLLEGE PA
800 PM EDT SUN SEP 14 2014

Note: "fair" indicates few or no clouds below 12,000 feet with no
significant weather and/or obstructions to visibility.

* = STATION THAT DOES NOT REPORT PRECIPITATION /E.G. RAIN...SNOW...ETC/
    THUNDER OR FOG.

PAZ002>004-007>009-013>016-020>023-029>032-150100-
WESTERN PENNSYLVANIA

CITY           SKY/WX    TMP DP  RH WIND       PRES   REMARKS
ERIE           MOCLDY    56  44  64 E3        30.23S
MEADVILLE      PTCLDY    53  45  74 NE3       30.22F
FRANKLIN*      CLOUDY    55  45  67 CALM      30.23S
NEW CASTLE     FAIR      52  47  83 CALM      30.23S
BEAVER COUNTY  NOT AVBL
BUTLER*        MOCLDY    54  45  71 CALM      30.24S
PITTSBURGH INT PTCLDY    59  45  59 CALM      30.22S
PITTSBURGH     CLEAR     60  42  51 SW5       30.21S
INDIANA*       PTCLDY    54  48  82 CALM      30.26S
LATROBE        CLEAR     57  50  77 CALM      30.23R
WASHINGTON CO* CLEAR     52  46  82 NW3       30.22S
$$

PAZ004>006-010>012-017>019-024>028-033>037-041-042-045-046-049>053-150100-
CENTRAL PENNSYLVANIA

CITY           SKY/WX    TMP DP  RH WIND       PRES   REMARKS
BRADFORD       CLOUDY    52  42  69 NW5       30.23S
DUBOIS         PTCLDY    50  46  86 CALM      30.22S
CLEARFIELD     PTCLDY    52  49  89 N3        30.23S
JOHNSTOWN      CLEAR     55  43  63 NW7       30.22S
ALTOONA        MOCLDY    53  49  86 CALM      30.22S
STATE COLLEGE  CLEAR     54  46  76 CALM      30.23R
WILLIAMSPORT   CLEAR     55  47  74 CALM      30.20R
SELINSGROVE    PTCLDY    51  48  89 CALM      30.22R
FT INDIANTOWN  CLEAR     54  52  94 VRB2      30.22R
CAPITAL CITY   CLEAR     55  48  77 CALM      30.22R
HARRISBURG     PTCLDY    56  49  77 CALM      30.21S
YORK           CLEAR     52  48  86 CALM      30.22S
$$

PAZ038>040-043-044-047-048-054-055-060>062-067>071-150100-
EASTERN PENNSYLVANIA

CITY           SKY/WX    TMP DP  RH WIND       PRES   REMARKS
SCRANTON       CLEAR     52  46  80 E3        30.21R
MOUNT POCONO     N/A     51  45  79 CALM      30.21S
ALLENTOWN      MOCLDY    56  47  71 SW5       30.20R
QUAKERTOWN*    MOCLDY    55  50  82 CALM      30.21S
READING        PTCLDY    60  47  61 SW3       30.20S
LANCASTER      PTCLDY    58  46  64 W3        30.22R
COATESVILLE    MOCLDY    55  48  76 CALM      30.22S
POTTSTOWN      MOCLDY    56  50  80 CALM      30.22S
BLUE BELL      MOCLDY    57  54  88 CALM      30.20R
DOYLESTOWN     MOCLDY    57  50  77 CALM      30.20R
WILLOW GROVE   NOT AVBL
NORTH PHILA    MOCLDY    63  47  55 W6        30.21S
PHILADELPHIA   MOCLDY    65  49  56 SW9       30.21R
$$



USA.gov is the U.S. government's official web portal to all federal, state and local government web resources and services.